EW7084 Weather Reports


Display with metric or nautical units.
time (UTC)temp
F
wind
direction
speed
MPH
gust
MPH
rain 1hr
in
rain 24hr
in
rain mn
in
humidity
%
barometer
mb
20260509024532 45 196 0.0 0.0 0.00 0.00 0.00 73 1013.4
20260509023018 45 196 0.0 0.0 0.00 0.00 0.00 72 1013.3
20260509021518 46 196 0.0 0.0 0.00 0.00 0.00 71 1013.3
20260509020016 47 196 0.0 0.0 0.00 0.00 0.00 70 1013.4
20260509014518 47 196 0.0 2.0 0.00 0.00 0.00 68 1013.3
20260509013024 48 196 0.0 0.0 0.00 0.00 0.00 68 1013.2
20260509011518 50 196 0.0 0.0 0.00 0.00 0.00 64 1013.0
20260509010022 51 196 0.0 0.0 0.00 0.00 0.00 63 1012.9
20260509004514 52 196 0.0 0.0 0.00 0.00 0.00 60 1012.6
20260509003014 53 196 0.0 1.0 0.00 0.00 0.00 59 1012.4
20260509001513 54 196 0.0 1.0 0.00 0.00 0.00 57 1012.3
20260509000015 56 196 0.0 1.0 0.00 0.00 0.00 52 1012.1
20260508234512 57 196 0.0 0.0 0.00 0.00 0.00 51 1012.0
20260508233012 57 196 0.0 2.0 0.00 0.00 0.00 48 1011.7
20260508231611 58 196 1.0 3.0 0.00 0.00 0.00 45 1011.6
20260508230010 58 196 0.0 2.0 0.00 0.00 0.00 43 1011.6
20260508224509 59 196 0.0 4.0 0.00 0.00 0.00 44 1011.6
20260508223019 59 192 0.0 4.0 0.00 0.00 0.00 42 1011.7
20260508221509 59 278 0.0 7.0 0.00 0.00 0.00 42 1011.5
20260508220020 59 293 1.0 8.0 0.00 0.00 0.00 43 1011.7
20260508214507 59 5 2.0 8.0 0.00 0.00 0.00 42 1011.7
20260508213011 60 217 2.0 6.0 0.00 0.00 0.00 41 1011.7
20260508211605 59 266 2.0 9.0 0.00 0.00 0.00 42 1011.9
20260508210002 58 313 1.0 8.0 0.00 0.00 0.00 42 1011.9
20260508204622 58 297 3.0 10.0 0.00 0.00 0.00 41 1012.1
20260508203102 57 28 4.0 13.0 0.00 0.00 0.00 44 1012.1
20260508201610 58 294 3.0 10.0 0.00 0.00 0.00 42 1012.3
20260508200117 57 185 7.0 13.0 0.00 0.00 0.00 43 1012.5
20260508194555 56 236 2.0 12.0 0.00 0.00 0.00 44 1012.6
20260508193055 57 284 3.0 11.0 0.00 0.00 0.00 42 1012.8
20260508191548 56 272 5.0 15.0 0.00 0.00 0.00 46 1013.0
20260508190051 54 292 4.0 9.0 0.00 0.00 0.00 48 1013.3
20260508184543 54 188 4.0 9.0 0.00 0.00 0.00 51 1013.4
20260508183041 54 217 5.0 11.0 0.00 0.00 0.00 51 1013.8
20260508181605 53 190 4.0 12.0 0.00 0.00 0.00 53 1013.8
20260508180045 53 174 3.0 10.0 0.00 0.00 0.00 55 1013.8
20260508174535 52 338 2.0 10.0 0.00 0.00 0.00 61 1013.9
20260508173031 50 247 4.0 9.0 0.00 0.00 0.00 66 1014.1
20260508171530 49 281 2.0 7.0 0.00 0.00 0.00 67 1014.0
20260508170029 50 281 1.0 7.0 0.00 0.00 0.00 69 1014.1
20260508164535 47 284 5.0 10.0 0.00 0.00 0.00 73 1014.3
20260508163024 47 215 3.0 13.0 0.00 0.00 0.00 73 1014.4
20260508161523 46 36 4.0 8.0 0.00 0.00 0.00 72 1014.3
20260508160034 47 169 1.0 7.0 0.00 0.00 0.00 72 1014.1
20260508154522 47 166 3.0 5.0 0.00 0.00 0.00 69 1014.1
20260508153020 47 165 1.0 3.0 0.00 0.00 0.00 70 1013.8
20260508151520 46 165 0.0 3.0 0.00 0.00 0.00 73 1013.7
20260508144517 45 165 2.0 5.0 0.00 0.00 0.00 76 1014.0
20260508143018 44 165 2.0 5.0 0.00 0.00 0.00 78 1014.0
20260508141516 44 165 3.0 7.0 0.00 0.00 0.00 78 1014.1
20260508140014 44 167 1.0 14.0 0.00 0.00 0.00 76 1014.1
20260508134514 45 157 4.0 8.0 0.00 0.00 0.00 78 1013.8
20260508133019 45 155 4.0 7.0 0.00 0.00 0.00 80 1013.2
20260508131512 44 159 4.0 8.0 0.00 0.00 0.00 81 1013.1
20260508130012 43 167 3.0 6.0 0.00 0.00 0.00 82 1013.3
20260508124511 43 150 3.0 6.0 0.00 0.00 0.00 84 1013.2
20260508123011 42 150 3.0 6.0 0.00 0.00 0.00 86 1013.4
20260508121510 41 171 2.0 6.0 0.00 0.00 0.00 88 1013.4
20260508120009 40 146 3.0 5.0 0.00 0.00 0.00 88 1013.6
20260508114508 40 146 0.0 1.0 0.00 0.00 0.00 88 1013.4
20260508113008 40 146 0.0 2.0 0.00 0.00 0.00 88 1013.6
20260508111511 39 146 0.0 3.0 0.00 0.00 0.00 88 1013.6
20260508110007 38 146 1.0 2.0 0.00 0.00 0.00 88 1013.5
20260508104506 37 146 0.0 0.0 0.00 0.00 0.00 87 1013.5
20260508103014 37 146 0.0 2.0 0.00 0.00 0.00 87 1013.6
20260508101512 37 146 0.0 1.0 0.00 0.00 0.00 86 1013.5
20260508100006 36 146 0.0 2.0 0.00 0.00 0.00 86 1013.5
20260508094502 36 146 0.0 2.0 0.00 0.00 0.00 85 1013.6
20260508093100 36 146 0.0 1.0 0.00 0.00 0.00 85 1013.6
20260508091557 36 146 0.0 0.0 0.00 0.00 0.00 84 1013.3
20260508090110 37 146 0.0 0.0 0.00 0.00 0.00 84 1013.3
20260508083111 38 146 0.0 2.0 0.00 0.00 0.00 83 1013.0
20260508081551 39 146 0.0 3.0 0.00 0.00 0.00 83 1012.8
20260508080050 40 146 0.0 0.0 0.00 0.00 0.00 83 1012.9
20260508074549 41 146 0.0 2.0 0.00 0.00 0.00 83 1012.5
20260508073043 42 146 0.0 1.0 0.00 0.00 0.00 83 1012.8
20260508071541 42 146 0.0 3.0 0.00 0.00 0.00 83 1012.7
20260508070039 42 146 0.0 3.0 0.00 0.00 0.00 81 1012.8
20260508064548 42 146 0.0 1.0 0.00 0.00 0.00 78 1012.7
20260508063036 42 146 0.0 3.0 0.00 0.00 0.00 77 1012.6
20260508061536 42 146 0.0 2.0 0.00 0.00 0.00 75 1012.6
20260508060032 42 146 0.0 0.0 0.00 0.00 0.00 75 1012.5
20260508054533 43 146 0.0 1.0 0.00 0.00 0.00 74 1012.4
20260508053031 43 146 0.0 2.0 0.00 0.00 0.00 74 1012.5
20260508051525 44 146 0.0 2.0 0.00 0.00 0.00 73 1012.7
20260508050026 45 146 0.0 0.0 0.00 0.00 0.00 73 1012.8
20260508044521 46 146 0.0 0.0 0.00 0.00 0.00 73 1012.7
20260508043020 46 146 0.0 5.0 0.00 0.00 0.00 73 1012.9
20260508041517 46 146 3.0 8.0 0.00 0.00 0.00 72 1013.0
20260508040021 46 209 0.0 6.0 0.00 0.00 0.00 73 1012.9
20260508034514 46 340 0.0 2.0 0.00 0.00 0.00 75 1012.7
20260508033016 46 340 0.0 1.0 0.00 0.00 0.00 74 1012.4
20260508031520 47 340 0.0 1.0 0.00 0.00 0.00 74 1012.3
20260508030015 47 340 0.0 0.0 0.00 0.00 0.00 73 1012.2